RH
72 78 62 49 35 42 45 47 43 58 60 58 54 18 10 13 30 40 41 42 47 49 41 26 16 15 13 12 9 9 7 7 9 10 13 20 27 39 47 49 41 27 41 45
69 88 76 62 52 42 36 61 55 50 70 59 64 60 43 11 11 28 41 44 42 48 56 47 29 20 18 16 14 10 10 10 14 22 35 52 68 65 57 53 50 46 91 86
52 82 90 84 63 52 49 45 56 42 57 66 66 68 73 56 12 12 26 40 47 44 50 58 48 32 23 23 19 16 14 20 24 36 60 82 97 83 67 50 62 82 99 100
57 40 94 88 75 70 58 61 65 47 48 62 67 61 66 73 54 16 11 20 40 48 44 50 60 50 33 22 25 25 28 38 38 74 90 83 96 85 64 91 96 74 100 100
52 69 61 94 78 75 77 69 60 79 58 52 64 66 66 68 62 50 39 12 17 39 54 48 53 67 52 34 38 42 37 50 58 73 82 92 100 88 98 100 100 100 100 100
41 72 78 83 84 75 72 80 67 70 63 63 62 72 72 74 66 69 74 47 13 15 40 57 52 57 70 48 33 39 38 61 87 76 94 87 90 100 99 100 100 99 100 100
47 56 80 63 79 66 71 60 85 72 67 64 67 68 81 70 81 69 77 85 53 13 12 36 56 56 66 69 43 34 43 57 77 86 90 91 92 84 100 95 90 96 86 98
57 57 70 94 96 77 61 61 72 65 74 63 59 61 72 87 82 85 76 72 80 30 12 15 44 57 60 72 66 44 37 51 77 94 90 78 84 94 96 98 77 78 86 100
37 42 78 100 86 79 74 62 60 64 66 64 49 51 67 84 80 94 78 64 63 59 30 12 20 52 62 63 73 65 46 36 57 84 94 90 92 83 89 92 90 89 87 89
46 39 62 88 86 78 68 75 59 62 51 48 46 45 56 72 68 90 97 76 72 66 56 20 12 22 56 64 68 78 63 43 33 68 98 96 93 92 87 93 84 78 97 96
55 71 75 90 89 62 56 58 64 58 56 59 41 49 43 48 64 75 96 80 86 68 70 50 15 12 21 59 66 70 78 67 47 39 47 67 83 94 85 88 85 89 97 89
70 75 82 90 100 93 53 43 50 61 62 69 55 46 48 51 63 74 92 82 72 94 74 62 47 13 12 22 56 66 70 68 66 59 47 40 44 76 99 100 100 98 82 94
88 98 100 100 100 97 80 43 47 65 59 65 56 52 55 55 61 65 86 79 70 67 91 66 46 41 12 12 23 62 70 77 72 68 62 52 47 45 52 60 67 79 96 100
100 97 100 91 87 68 100 100 66 69 55 58 57 53 52 64 62 70 73 89 72 66 82 98 53 40 27 13 14 54 66 70 71 72 69 68 59 49 44 44 47 46 55 68
100 100 87 82 97 100 100 100 93 85 53 67 54 56 52 69 66 92 70 84 69 59 65 62 78 54 34 24 12 38 73 79 85 72 82 74 73 71 61 50 43 47 50 53
100 99 100 100 100 95 86 90 97 89 76 61 61 82 75 90 79 94 94 74 79 64 58 56 52 86 56 34 24 15 26 53 75 89 80 83 80 74 73 70 64 52 48 47
100 100 100 100 100 100 100 99 98 100 75 79 75 77 94 82 82 94 100 85 83 70 64 54 55 82 48 40 28 21 17 14 19 55 91 80 82 78 63 75 69 58 56 50
100 100 100 99 100 95 89 88 80 88 99 95 91 76 84 71 87 100 100 99 93 72 58 54 54 59 92 37 30 25 20 16 15 14 26 69 80 79 66 67 59 60 55 49
100 100 99 100 100 100 100 93 82 81 96 97 100 87 80 87 99 100 100 99 94 78 61 49 48 65 63 93 22 27 24 18 14 15 15 12 53 71 80 71 77 61 62 69
100 100 100 100 100 100 100 100 98 89 100 100 99 93 98 100 100 100 93 100 100 90 75 53 41 74 60 72 79 16 29 25 17 14 13 14 11 33 68 88 76 80 71 65
100 100 100 100 100 100 94 86 100 100 100 100 100 100 100 100 100 100 100 99 98 92 83 51 48 64 68 64 72 33 14 18 18 15 14 13 15 9 19 64 82 80 86 98
100 100 100 100 100 100 100 100 100 100 100 100 100 100 100 100 100 100 100 100 93 92 75 60 47 61 55 72 65 47 21 12 15 14 14 13 12 12 9 12 56 71 76 85
100 100 100 100 100 100 100 100 100 100 100 100 100 100 100 100 100 100 100 99 100 83 85 55 55 56 56 64 44 38 24 12 16 13 12 12 11 10 10 9 11 44 58 72
100 100 100 100 100 100 100 100 100 100 100 100 100 100 100 100 100 100 100 100 86 85 79 36 54 42 46 58 48 33 18 15 17 14 12 12 10 10 9 8 8 13 32 51
100 100 100 100 100 100 100 100 100 100 100 100 100 100 100 100 100 100 100 100 96 92 47 47 36 26 27 36 36 22 21 18 18 13 11 10 10 9 9 8 7 8 11 26
100 100 100 97 100 100 100 100 100 100 100 100 100 100 100 100 100 100 100 100 100 41 42 37 34 25 20 24 20 18 16 17 14 11 11 10 10 9 7 7 6 7 8 10
96 91 97 89 88 100 100 100 100 100 100 100 100 100 100 100 100 100 100 98 59 46 57 34 39 23 16 16 16 14 13 14 11 10 10 10 9 8 6 6 6 6 6 8
Wind_Speed
78 82 87 92 99 100 101 106 108 108 112 107 101 87 71 54 48 49 51 54 57 62 65 65 62 48 37 27 17 11 4 4 6 11 13 15 14 12 11 12 9 3 11 18
77 79 81 85 91 96 101 99 106 109 107 107 105 106 89 77 57 49 48 50 52 56 60 63 64 63 49 38 27 18 12 10 12 16 18 18 17 16 16 17 12 19 32 26
73 75 79 78 85 90 93 101 100 106 105 104 107 114 102 89 80 62 49 49 50 50 54 58 61 62 60 48 39 28 20 19 16 17 20 26 26 24 19 15 23 35 34 35
68 77 73 81 80 83 92 91 96 102 104 101 102 108 111 99 82 80 70 51 46 48 48 51 54 58 61 59 50 37 23 16 16 16 25 21 24 24 27 32 32 30 35 29
67 69 74 76 82 85 86 89 97 96 99 101 99 104 105 109 102 84 84 72 50 43 44 45 47 51 54 59 55 40 25 15 13 15 20 25 28 27 36 31 32 37 34 33
66 66 68 71 76 84 87 87 90 94 95 97 99 98 101 103 109 98 91 85 69 49 41 40 42 43 46 49 52 45 27 20 9 10 16 19 24 36 36 36 33 32 33 32
64 63 62 67 74 77 81 87 86 89 93 93 96 97 98 99 102 106 98 89 75 68 45 37 35 37 40 42 45 50 34 19 18 9 8 20 27 26 31 31 28 26 29 24
61 63 62 61 69 76 79 83 85 89 88 91 93 96 98 96 98 102 105 91 85 66 61 39 32 31 33 37 39 43 42 22 16 10 1 3 18 26 30 27 23 25 27 22
66 66 60 60 67 73 76 79 83 86 87 88 92 94 95 95 98 96 99 101 93 75 69 55 33 28 28 28 32 33 35 31 21 19 12 6 17 17 25 25 26 19 14 20
66 70 63 60 64 71 74 75 80 83 84 87 90 92 91 94 95 95 96 98 100 92 74 61 49 28 24 24 24 28 29 30 31 25 17 8 10 11 12 26 26 19 18 14
65 61 60 57 61 70 74 73 77 81 82 81 87 88 91 90 95 95 94 99 97 100 87 68 56 40 23 21 21 20 23 25 27 25 21 14 10 3 9 10 14 28 17 15
62 63 59 57 56 64 71 74 77 78 79 78 83 86 89 89 89 92 92 97 98 99 96 75 59 51 33 21 20 19 17 18 19 19 17 16 16 12 4 7 10 19 24 17
62 57 53 60 59 66 70 72 76 79 81 80 82 84 86 87 90 91 90 94 99 99 99 81 65 55 49 34 19 18 19 15 14 16 12 12 12 13 10 5 2 9 13 19
57 59 56 60 62 65 68 70 75 79 82 84 86 85 85 87 88 90 92 90 98 101 97 87 71 63 51 43 31 17 20 21 18 12 14 12 7 8 7 3 6 8 7 3
58 60 65 65 64 65 68 70 75 78 84 82 87 85 86 84 88 86 91 92 98 99 99 91 87 70 59 49 36 17 25 21 23 21 17 16 15 10 7 6 5 0 2 3
69 69 69 68 66 69 73 69 72 77 81 84 87 84 83 84 86 87 88 93 96 99 98 96 87 79 58 55 46 35 25 29 27 26 24 21 18 20 17 11 10 9 7 5
71 73 73 79 73 73 71 73 72 76 81 83 86 88 83 89 87 88 89 94 97 98 101 100 90 86 67 53 51 44 39 35 31 31 32 33 27 26 23 21 19 17 15 14
72 75 79 80 75 77 77 75 75 76 80 84 89 92 89 93 90 91 94 97 99 102 105 106 97 87 84 68 51 45 46 43 41 38 36 40 37 38 33 28 29 27 25 22
82 83 81 74 75 79 80 77 75 77 80 86 88 98 99 97 94 96 100 103 104 106 111 108 101 90 84 81 63 50 44 43 44 42 41 40 46 44 44 40 37 34 32 31
79 81 85 85 86 90 89 85 84 90 84 86 92 100 101 102 100 101 103 105 109 109 114 115 107 96 90 80 75 62 50 44 44 46 45 46 47 49 51 51 48 45 40 39
95 95 93 94 94 93 95 92 92 89 90 92 95 99 100 105 108 105 107 108 112 113 113 117 110 102 92 85 78 69 64 50 45 47 48 47 50 53 52 58 58 54 51 47
108 106 104 99 98 96 96 91 92 94 95 97 100 101 101 105 110 108 109 110 111 115 116 116 115 102 92 90 84 73 70 61 48 46 48 48 50 52 58 57 64 65 61 55
116 116 116 114 108 103 100 95 96 99 98 99 103 108 110 110 112 113 112 111 114 114 114 123 110 98 92 90 83 79 72 66 59 53 51 49 49 53 55 63 64 69 68 65
125 125 123 118 112 108 103 98 99 102 103 104 107 109 111 114 117 118 118 116 118 115 118 114 108 100 90 90 85 81 77 75 67 58 55 53 52 52 57 59 65 68 72 72
130 130 128 115 114 113 107 104 103 106 106 107 107 111 114 115 116 119 116 116 120 120 121 111 103 98 90 86 85 82 79 77 67 61 57 58 54 55 57 62 63 67 71 76
141 142 129 119 111 112 111 109 106 106 108 107 109 113 115 116 118 120 115 113 120 121 112 108 105 98 91 90 87 83 76 67 64 61 60 59 60 58 57 61 67 65 69 71
151 140 131 132 122 116 115 112 110 110 111 111 115 117 116 119 118 116 112 116 123 115 115 110 106 103 95 91 90 83 73 65 64 63 63 64 61 60 61 60 65 67 68 72
Wind_Direction
22 24 27 26 26 27 29 32 31 33 34 37 37 33 30 27 26 21 24 31 33 31 29 32 34 34 35 36 38 41 66 137 151 134 131 135 136 129 131 138 165 137 83 71
15 19 23 25 23 24 24 27 28 29 31 32 35 33 32 29 25 23 19 22 28 31 30 27 28 30 31 34 34 40 53 79 109 109 107 121 128 140 140 135 137 100 95 80
12 14 17 23 23 22 22 22 25 25 27 29 31 31 32 31 29 26 21 16 17 24 29 29 24 27 27 32 33 31 42 63 84 107 125 138 140 142 144 134 120 108 98 87
11 12 13 14 18 20 18 20 22 22 23 25 28 28 31 30 30 28 25 20 16 13 20 27 26 24 26 24 26 30 35 71 84 124 144 146 148 155 139 130 124 117 101 99
10 8 10 9 12 14 16 17 18 19 20 23 24 24 26 26 29 29 26 23 17 13 11 18 26 24 24 27 25 18 35 56 74 133 155 155 158 149 134 130 130 119 123 115
3 6 7 8 7 9 10 13 15 15 16 19 19 22 22 23 25 28 24 22 20 14 9 10 14 24 24 25 26 26 25 46 76 119 172 167 157 145 148 137 138 132 131 128
358 2 3 4 4 5 5 8 10 11 12 14 14 16 20 21 22 22 23 20 18 16 8 6 7 12 22 24 24 27 30 49 41 38 143 177 162 162 156 158 151 147 145 133
354 358 357 360 360 1 1 3 5 6 9 9 10 13 13 18 19 21 21 22 19 16 14 4 1 2 13 21 22 29 27 46 53 26 55 179 195 167 170 166 175 167 154 146
346 350 353 354 354 355 357 359 1 3 5 5 7 7 9 12 14 18 18 19 19 17 13 9 358 354 358 14 21 23 33 37 60 60 27 257 338 203 192 185 184 168 176 166
341 343 347 348 346 350 352 354 356 357 1 1 2 2 4 6 10 13 13 15 15 16 13 10 5 350 347 354 11 16 16 25 42 54 54 11 3 253 283 187 200 205 190 188
338 338 342 342 340 345 347 348 348 353 355 357 358 359 0 3 4 7 9 9 11 12 12 10 6 359 343 338 346 7 14 11 30 43 47 43 53 28 225 251 242 222 241 236
334 334 336 338 333 338 341 342 342 347 349 352 354 355 356 360 358 3 5 7 8 8 9 8 6 5 352 336 326 335 354 3 7 27 36 32 39 51 25 285 260 253 238 246
326 331 326 332 329 331 334 337 340 340 344 345 347 351 352 354 355 358 0 1 3 5 7 7 6 1 1 351 325 313 321 332 346 346 2 17 22 28 34 32 196 205 230 262
321 324 321 326 325 328 329 328 336 336 339 339 342 345 349 348 352 353 356 356 357 360 3 5 2 359 356 356 349 307 296 305 310 318 325 325 347 3 4 32 81 75 85 120
314 315 318 321 321 324 324 328 329 332 333 335 335 340 344 343 347 347 350 352 352 355 359 1 4 356 352 349 354 325 285 280 285 293 297 301 301 295 295 317 309 99 129 128
308 310 313 316 315 316 320 323 325 327 330 331 331 335 340 338 343 342 344 347 348 350 352 356 360 3 349 345 343 343 307 282 272 273 275 275 277 282 279 272 277 289 293 254
300 306 310 311 313 315 315 320 322 322 326 327 328 328 334 333 338 337 339 341 342 345 348 349 352 359 351 346 337 336 336 317 291 265 261 264 262 258 260 263 256 250 243 252
297 302 305 307 307 308 310 314 318 321 323 322 323 325 328 330 332 334 334 336 337 340 342 345 345 351 352 350 338 333 329 325 315 294 270 255 253 258 256 248 250 250 249 245
296 298 300 301 303 306 307 310 315 318 318 319 317 320 324 325 328 329 330 331 331 334 335 340 346 342 346 348 343 330 324 324 318 308 288 275 253 249 253 252 247 243 244 245
290 293 294 297 298 300 302 307 310 315 313 313 315 318 321 321 323 325 325 326 328 331 330 334 336 337 338 343 341 337 326 318 318 311 299 284 270 252 245 247 249 248 241 240
286 287 288 290 292 296 300 306 310 311 310 311 313 315 318 318 317 319 322 323 324 327 326 328 331 332 333 334 337 332 329 320 313 311 307 291 277 269 248 242 244 244 245 242
286 287 287 288 290 293 297 303 305 303 305 309 309 310 311 311 313 315 318 320 322 322 323 323 327 328 328 330 331 331 328 326 313 306 303 297 283 271 262 247 239 241 241 241
283 282 284 285 288 291 296 299 298 300 301 302 304 306 308 309 310 312 315 316 318 319 319 319 326 326 327 326 326 327 326 323 317 307 302 296 287 276 265 257 246 238 239 238
279 281 281 282 287 291 293 295 295 296 297 299 301 303 305 305 307 310 312 315 316 316 313 317 323 322 324 326 323 325 324 320 315 306 300 295 289 278 270 259 251 244 239 237
276 277 278 283 287 288 290 290 291 291 292 296 298 299 300 302 304 306 309 312 312 310 309 317 316 320 323 323 320 322 320 316 312 305 298 293 287 280 271 264 254 247 243 238
275 276 280 281 281 284 285 285 287 287 289 291 294 296 297 299 301 302 309 305 304 304 312 311 313 317 320 319 317 319 316 314 309 303 296 291 288 280 271 263 259 250 245 242
272 275 277 279 279 280 280 282 283 284 285 287 289 292 294 296 299 302 300 299 300 305 306 308 311 313 316 316 317 315 313 312 307 299 293 289 284 280 273 263 259 254 246 242